Time,TemperatureF,DewpointF,PressureIn,WindDirection,WindDirectionDegrees,WindSpeedMPH,WindSpeedGustMPH,Humidity,HourlyPrecipIn,Conditions,Clouds,dailyrainin,SoftwareType,DateUTC
2013-02-06 00:02:00,43.6,37.2,30.05,NNE,29,3.0,5.0,78,0.00,,,0.00,Wunderground v.1.15,2013-02-06 05:02:00,
2013-02-06 00:04:00,44.0,37.3,30.05,NNE,25,3.0,5.0,77,0.00,,,0.00,Wunderground v.1.15,2013-02-06 05:04:00,
2013-02-06 00:06:00,44.4,37.3,30.05,NNE,29,4.0,5.0,76,0.00,,,0.00,Wunderground v.1.15,2013-02-06 05:06:00,
2013-02-06 00:08:00,44.7,37.6,30.05,NNE,27,4.0,5.0,76,0.00,,,0.00,Wunderground v.1.15,2013-02-06 05:08:00,
2013-02-06 00:14:00,45.4,37.6,30.05,NNE,13,4.0,5.0,74,0.00,,,0.00,Wunderground v.1.15,2013-02-06 05:14:00,
2013-02-06 00:20:00,45.6,37.4,30.06,North,5,4.0,5.0,73,0.00,,,0.00,Wunderground v.1.15,2013-02-06 05:20:00,
2013-02-06 00:26:00,45.7,37.2,30.06,NNE,25,5.0,6.0,72,0.00,,,0.00,Wunderground v.1.15,2013-02-06 05:26:00,
2013-02-06 00:32:00,46.2,37.7,30.06,NNE,23,6.0,7.0,72,0.00,,,0.00,Wunderground v.1.15,2013-02-06 05:32:00,
2013-02-06 00:38:00,46.0,37.1,30.06,NE,34,5.0,7.0,71,0.00,,,0.00,Wunderground v.1.15,2013-02-06 05:38:00,
2013-02-06 00:44:00,46.0,37.5,30.07,NE,36,4.0,6.0,72,0.00,,,0.00,Wunderground v.1.15,2013-02-06 05:44:00,
2013-02-06 00:50:00,46.5,36.9,30.06,NE,53,5.0,6.0,69,0.00,,,0.00,Wunderground v.1.15,2013-02-06 05:50:00,
2013-02-06 00:56:00,47.0,37.0,30.07,NE,39,4.0,6.0,68,0.00,,,0.00,Wunderground v.1.15,2013-02-06 05:56:00,
2013-02-06 01:02:00,47.4,36.6,30.07,ENE,71,5.0,5.0,66,0.00,,,0.00,Wunderground v.1.15,2013-02-06 06:02:00,
2013-02-06 01:08:00,47.4,35.8,30.08,NE,49,5.0,5.0,64,0.00,,,0.00,Wunderground v.1.15,2013-02-06 06:08:00,
2013-02-06 01:14:00,47.7,35.3,30.07,NE,42,6.0,6.0,62,0.00,,,0.00,Wunderground v.1.15,2013-02-06 06:14:00,
2013-02-06 01:20:00,47.9,35.1,30.08,NE,48,7.0,7.0,61,0.00,,,0.00,Wunderground v.1.15,2013-02-06 06:20:00,
2013-02-06 01:26:00,47.9,35.1,30.08,NNE,31,7.0,8.0,61,0.00,,,0.00,Wunderground v.1.15,2013-02-06 06:26:00,
2013-02-06 01:32:00,47.7,34.9,30.08,NE,44,6.0,7.0,61,0.00,,,0.00,Wunderground v.1.15,2013-02-06 06:32:00,
2013-02-06 01:38:00,47.5,34.7,30.08,NE,49,7.0,7.0,61,0.00,,,0.00,Wunderground v.1.15,2013-02-06 06:38:00,
2013-02-06 01:44:00,47.5,33.9,30.08,NE,56,7.0,9.0,59,0.00,,,0.00,Wunderground v.1.15,2013-02-06 06:44:00,
2013-02-06 01:50:00,47.7,34.1,30.08,North,11,7.0,7.0,59,0.00,,,0.00,Wunderground v.1.15,2013-02-06 06:50:00,
2013-02-06 01:56:00,47.5,33.9,30.08,NNE,19,7.0,8.0,59,0.00,,,0.00,Wunderground v.1.15,2013-02-06 06:56:00,
2013-02-06 02:02:00,47.5,33.4,30.08,NE,42,6.0,7.0,58,0.00,,,0.00,Wunderground v.1.15,2013-02-06 07:02:00,
2013-02-06 02:08:00,47.5,33.4,30.08,NE,55,6.0,7.0,58,0.00,,,0.00,Wunderground v.1.15,2013-02-06 07:08:00,
2013-02-06 02:14:00,47.5,33.4,30.09,NE,51,6.0,7.0,58,0.00,,,0.00,Wunderground v.1.15,2013-02-06 07:14:00,
2013-02-06 02:20:00,47.3,33.3,30.09,ENE,68,6.0,6.0,58,0.00,,,0.00,Wunderground v.1.15,2013-02-06 07:20:00,
2013-02-06 02:26:00,47.1,33.1,30.09,ENE,58,7.0,7.0,58,0.00,,,0.00,Wunderground v.1.15,2013-02-06 07:26:00,
2013-02-06 02:32:00,47.0,33.0,30.09,ENE,72,7.0,7.0,58,0.00,,,0.00,Wunderground v.1.15,2013-02-06 07:32:00,
2013-02-06 02:38:00,46.9,32.9,30.09,NE,34,6.0,8.0,58,0.00,,,0.00,Wunderground v.1.15,2013-02-06 07:38:00,
2013-02-06 02:44:00,46.7,33.1,30.09,ENE,68,6.0,10.0,59,0.00,,,0.00,Wunderground v.1.15,2013-02-06 07:44:00,
2013-02-06 02:50:00,46.8,32.8,30.10,NNE,26,7.0,7.0,58,0.00,,,0.00,Wunderground v.1.15,2013-02-06 07:50:00,
2013-02-06 02:56:00,46.8,32.8,30.10,NE,39,8.0,8.0,58,0.00,,,0.00,Wunderground v.1.15,2013-02-06 07:56:00,
2013-02-06 03:02:00,46.6,33.0,30.10,NNE,21,7.0,8.0,59,0.00,,,0.00,Wunderground v.1.15,2013-02-06 08:02:00,
2013-02-06 03:08:00,46.5,32.9,30.10,NE,39,6.0,8.0,59,0.00,,,0.00,Wunderground v.1.15,2013-02-06 08:08:00,
2013-02-06 03:14:00,46.2,33.1,30.10,NNE,19,5.0,6.0,60,0.00,,,0.00,Wunderground v.1.15,2013-02-06 08:14:00,
2013-02-06 03:20:00,45.8,32.7,30.10,NE,37,3.0,3.0,60,0.00,,,0.00,Wunderground v.1.15,2013-02-06 08:20:00,
2013-02-06 03:26:00,45.4,32.7,30.10,North,9,1.0,5.0,61,0.00,,,0.00,Wunderground v.1.15,2013-02-06 08:26:00,
2013-02-06 03:32:00,44.8,32.6,30.10,North,11,1.0,5.0,62,0.00,,,0.00,Wunderground v.1.15,2013-02-06 08:32:00,
2013-02-06 03:38:00,44.3,32.5,30.10,NNW,344,2.0,5.0,63,0.00,,,0.00,Wunderground v.1.15,2013-02-06 08:38:00,
2013-02-06 03:44:00,43.8,32.4,30.10,NNW,329,1.0,5.0,64,0.00,,,0.00,Wunderground v.1.15,2013-02-06 08:44:00,
2013-02-06 03:50:00,42.9,32.7,30.10,West,274,0.0,5.0,67,0.00,,,0.00,Wunderground v.1.15,2013-02-06 08:50:00,
2013-02-06 03:56:00,42.5,33.8,30.11,WNW,283,1.0,5.0,71,0.00,,,0.00,Wunderground v.1.15,2013-02-06 08:56:00,
2013-02-06 04:02:00,42.1,33.7,30.11,WNW,297,1.0,5.0,72,0.00,,,0.00,Wunderground v.1.15,2013-02-06 09:02:00,
2013-02-06 04:08:00,41.8,34.1,30.11,WNW,283,1.0,5.0,74,0.00,,,0.00,Wunderground v.1.15,2013-02-06 09:08:00,
2013-02-06 04:14:00,40.8,33.2,30.11,NNE,12,0.0,5.0,74,0.00,,,0.00,Wunderground v.1.15,2013-02-06 09:14:00,
2013-02-06 04:20:00,40.3,33.0,30.11,NE,43,1.0,5.0,75,0.00,,,0.00,Wunderground v.1.15,2013-02-06 09:20:00,
2013-02-06 04:26:00,40.1,32.8,30.11,NNE,21,1.0,5.0,75,0.00,,,0.00,Wunderground v.1.15,2013-02-06 09:26:00,
2013-02-06 04:32:00,39.8,32.2,30.12,NNE,21,1.0,5.0,74,0.00,,,0.00,Wunderground v.1.15,2013-02-06 09:32:00,
2013-02-06 04:38:00,40.0,32.4,30.12,NNW,330,1.0,5.0,74,0.00,,,0.00,Wunderground v.1.15,2013-02-06 09:38:00,
2013-02-06 04:44:00,39.9,31.9,30.12,NE,39,0.0,5.0,73,0.00,,,0.00,Wunderground v.1.15,2013-02-06 09:44:00,
2013-02-06 04:50:00,39.7,31.8,30.12,North,356,1.0,5.0,73,0.00,,,0.00,Wunderground v.1.15,2013-02-06 09:50:00,
2013-02-06 04:56:00,38.7,31.5,30.12,NE,46,2.0,5.0,75,0.00,,,0.00,Wunderground v.1.15,2013-02-06 09:56:00,
2013-02-06 05:02:00,38.5,31.3,30.13,NE,46,2.0,5.0,75,0.00,,,0.00,Wunderground v.1.15,2013-02-06 10:02:00,
2013-02-06 05:08:00,38.0,31.1,30.13,NE,39,1.0,5.0,76,0.00,,,0.00,Wunderground v.1.15,2013-02-06 10:08:00,
2013-02-06 05:14:00,37.8,30.9,30.13,NE,39,1.0,5.0,76,0.00,,,0.00,Wunderground v.1.15,2013-02-06 10:14:00,
2013-02-06 05:20:00,37.0,31.1,30.14,East,91,1.0,5.0,79,0.00,,,0.00,Wunderground v.1.15,2013-02-06 10:20:00,
2013-02-06 05:26:00,36.7,31.1,30.14,NE,39,1.0,5.0,80,0.00,,,0.00,Wunderground v.1.15,2013-02-06 10:26:00,
2013-02-06 05:32:00,36.5,30.9,30.14,NE,39,2.0,5.0,80,0.00,,,0.00,Wunderground v.1.15,2013-02-06 10:32:00,
2013-02-06 05:38:00,36.4,30.8,30.14,West,273,0.0,5.0,80,0.00,,,0.00,Wunderground v.1.15,2013-02-06 10:38:00,
2013-02-06 05:44:00,36.2,30.6,30.14,West,276,0.0,5.0,80,0.00,,,0.00,Wunderground v.1.15,2013-02-06 10:44:00,
2013-02-06 05:50:00,35.9,30.6,30.15,West,276,0.0,5.0,81,0.00,,,0.00,Wunderground v.1.15,2013-02-06 10:50:00,
2013-02-06 05:56:00,35.0,30.1,30.15,NE,41,1.0,5.0,82,0.00,,,0.00,Wunderground v.1.15,2013-02-06 10:56:00,
2013-02-06 06:02:00,35.1,30.8,30.15,NE,41,1.0,5.0,84,0.00,,,0.00,Wunderground v.1.15,2013-02-06 11:02:00,
2013-02-06 06:08:00,34.9,30.0,30.15,NE,41,0.0,5.0,82,0.00,,,0.00,Wunderground v.1.15,2013-02-06 11:08:00,
2013-02-06 06:14:00,34.4,30.1,30.16,NE,41,0.0,5.0,84,0.00,,,0.00,Wunderground v.1.15,2013-02-06 11:14:00,
2013-02-06 06:20:00,34.4,30.4,30.16,NE,41,0.0,5.0,85,0.00,,,0.00,Wunderground v.1.15,2013-02-06 11:20:00,
2013-02-06 06:26:00,34.5,30.5,30.16,NE,41,0.0,5.0,85,0.00,,,0.00,Wunderground v.1.15,2013-02-06 11:26:00,
2013-02-06 06:32:00,35.2,31.1,30.16,NE,41,1.0,5.0,85,0.00,,,0.00,Wunderground v.1.15,2013-02-06 11:32:00,
2013-02-06 06:38:00,35.4,30.8,30.17,NE,41,2.0,5.0,83,0.00,,,0.00,Wunderground v.1.15,2013-02-06 11:38:00,
2013-02-06 06:44:00,35.3,30.7,30.16,NE,41,1.0,5.0,83,0.00,,,0.00,Wunderground v.1.15,2013-02-06 11:44:00,
2013-02-06 06:50:00,34.7,30.1,30.17,NE,41,1.0,1.0,83,0.00,,,0.00,Wunderground v.1.15,2013-02-06 11:50:00,
2013-02-06 06:56:00,34.2,29.9,30.17,NE,41,0.0,5.0,84,0.00,,,0.00,Wunderground v.1.15,2013-02-06 11:56:00,
2013-02-06 07:02:00,33.8,30.1,30.17,NE,41,0.0,5.0,86,0.00,,,0.00,Wunderground v.1.15,2013-02-06 12:02:00,
2013-02-06 07:08:00,33.6,29.9,30.17,NE,41,0.0,5.0,86,0.00,,,0.00,Wunderground v.1.15,2013-02-06 12:08:00,
2013-02-06 07:14:00,33.3,29.8,30.18,NE,41,0.0,5.0,87,0.00,,,0.00,Wunderground v.1.15,2013-02-06 12:14:00,
2013-02-06 07:20:00,33.0,29.6,30.18,NE,41,0.0,5.0,87,0.00,,,0.00,Wunderground v.1.15,2013-02-06 12:20:00,
2013-02-06 07:26:00,32.7,29.5,30.18,NE,41,0.0,5.0,88,0.00,,,0.00,Wunderground v.1.15,2013-02-06 12:26:00,
2013-02-06 07:32:00,32.9,29.7,30.19,NE,41,0.0,5.0,88,0.00,,,0.00,Wunderground v.1.15,2013-02-06 12:32:00,
2013-02-06 07:38:00,33.2,30.3,30.19,NE,41,0.0,5.0,89,0.00,,,0.00,Wunderground v.1.15,2013-02-06 12:38:00,
2013-02-06 07:44:00,34.3,31.1,30.19,NE,41,0.0,5.0,88,0.00,,,0.00,Wunderground v.1.15,2013-02-06 12:44:00,
2013-02-06 07:50:00,34.7,31.2,30.19,NE,41,0.0,5.0,87,0.00,,,0.00,Wunderground v.1.15,2013-02-06 12:50:00,
2013-02-06 07:56:00,35.2,31.4,30.20,NE,41,0.0,5.0,86,0.00,,,0.00,Wunderground v.1.15,2013-02-06 12:56:00,
2013-02-06 08:02:00,35.9,31.5,30.20,NE,41,0.0,5.0,84,0.00,,,0.00,Wunderground v.1.15,2013-02-06 13:02:00,
2013-02-06 08:08:00,36.9,32.5,30.20,NE,41,0.0,5.0,84,0.00,,,0.00,Wunderground v.1.15,2013-02-06 13:08:00,
2013-02-06 08:14:00,38.6,33.9,30.20,NE,41,0.0,5.0,83,0.00,,,0.00,Wunderground v.1.15,2013-02-06 13:14:00,
2013-02-06 08:20:00,40.2,34.2,30.20,NE,41,0.0,5.0,79,0.00,,,0.00,Wunderground v.1.15,2013-02-06 13:20:00,
2013-02-06 08:26:00,40.9,33.9,30.21,NE,41,0.0,5.0,76,0.00,,,0.00,Wunderground v.1.15,2013-02-06 13:26:00,
2013-02-06 08:32:00,41.3,34.0,30.21,NE,39,0.0,5.0,75,0.00,,,0.00,Wunderground v.1.15,2013-02-06 13:32:00,
2013-02-06 08:38:00,42.4,35.0,30.21,NE,39,0.0,5.0,75,0.00,,,0.00,Wunderground v.1.15,2013-02-06 13:38:00,
2013-02-06 08:44:00,43.1,35.7,30.21,ENE,62,0.0,5.0,75,0.00,,,0.00,Wunderground v.1.15,2013-02-06 13:44:00,
2013-02-06 08:50:00,42.7,35.3,30.21,ENE,72,0.0,5.0,75,0.00,,,0.00,Wunderground v.1.15,2013-02-06 13:50:00,
2013-02-06 08:56:00,42.2,35.2,30.21,ENE,72,0.0,5.0,76,0.00,,,0.00,Wunderground v.1.15,2013-02-06 13:56:00,
2013-02-06 09:02:00,42.3,36.3,30.21,ENE,72,0.0,5.0,79,0.00,,,0.00,Wunderground v.1.15,2013-02-06 14:02:00,
2013-02-06 09:08:00,42.7,36.6,30.22,ENE,73,0.0,5.0,79,0.00,,,0.00,Wunderground v.1.15,2013-02-06 14:08:00,
2013-02-06 09:14:00,43.5,37.4,30.22,ENE,73,0.0,5.0,79,0.00,,,0.00,Wunderground v.1.15,2013-02-06 14:14:00,
2013-02-06 09:20:00,43.9,37.5,30.22,SW,221,0.0,5.0,78,0.00,,,0.00,Wunderground v.1.15,2013-02-06 14:20:00,
2013-02-06 09:26:00,43.4,37.6,30.22,SW,222,0.0,5.0,80,0.00,,,0.00,Wunderground v.1.15,2013-02-06 14:26:00,
2013-02-06 09:32:00,42.7,37.3,30.23,SSW,208,1.0,5.0,81,0.00,,,0.00,Wunderground v.1.15,2013-02-06 14:32:00,
2013-02-06 09:38:00,42.2,37.4,30.22,SSW,204,2.0,5.0,83,0.00,,,0.00,Wunderground v.1.15,2013-02-06 14:38:00,
2013-02-06 09:44:00,41.9,37.7,30.22,SSW,202,2.0,5.0,85,0.00,,,0.00,Wunderground v.1.15,2013-02-06 14:44:00,
2013-02-06 09:50:00,41.9,38.0,30.22,SW,218,2.0,5.0,86,0.00,,,0.00,Wunderground v.1.15,2013-02-06 14:50:00,
2013-02-06 09:56:00,42.2,38.3,30.23,SSW,203,2.0,5.0,86,0.00,,,0.00,Wunderground v.1.15,2013-02-06 14:56:00,
2013-02-06 10:02:00,42.5,37.7,30.23,SW,214,2.0,5.0,83,0.00,,,0.00,Wunderground v.1.15,2013-02-06 15:02:00,
2013-02-06 10:08:00,43.1,38.0,30.23,SW,231,1.0,5.0,82,0.00,,,0.00,Wunderground v.1.15,2013-02-06 15:08:00,
2013-02-06 10:14:00,43.5,38.1,30.23,SW,229,1.0,5.0,81,0.00,,,0.00,Wunderground v.1.15,2013-02-06 15:14:00,
2013-02-06 10:20:00,44.1,38.0,30.23,SW,226,1.0,1.0,79,0.00,,,0.00,Wunderground v.1.15,2013-02-06 15:20:00,
2013-02-06 10:26:00,44.6,37.2,30.23,SW,222,1.0,5.0,75,0.00,,,0.00,Wunderground v.1.15,2013-02-06 15:26:00,
2013-02-06 10:32:00,45.2,37.7,30.23,SW,219,1.0,5.0,75,0.00,,,0.00,Wunderground v.1.15,2013-02-06 15:32:00,
2013-02-06 10:38:00,45.4,38.3,30.23,SW,221,2.0,5.0,76,0.00,,,0.00,Wunderground v.1.15,2013-02-06 15:38:00,
2013-02-06 10:44:00,45.6,38.8,30.23,SW,218,2.0,5.0,77,0.00,,,0.00,Wunderground v.1.15,2013-02-06 15:44:00,
2013-02-06 10:50:00,46.0,37.1,30.23,SSW,207,1.0,5.0,71,0.00,,,0.00,Wunderground v.1.15,2013-02-06 15:50:00,
2013-02-06 10:56:00,46.3,36.7,30.24,SSW,210,2.0,5.0,69,0.00,,,0.00,Wunderground v.1.15,2013-02-06 15:56:00,
2013-02-06 11:02:00,46.3,36.7,30.23,SSW,208,2.0,5.0,69,0.00,,,0.00,Wunderground v.1.15,2013-02-06 16:02:00,
2013-02-06 11:08:00,46.7,37.1,30.24,SSW,201,2.0,5.0,69,0.00,,,0.00,Wunderground v.1.15,2013-02-06 16:08:00,
2013-02-06 11:14:00,46.9,36.1,30.23,SSW,193,2.0,5.0,66,0.00,,,0.00,Wunderground v.1.15,2013-02-06 16:14:00,
2013-02-06 11:20:00,47.4,36.6,30.24,SSW,210,2.0,5.0,66,0.00,,,0.00,Wunderground v.1.15,2013-02-06 16:20:00,
2013-02-06 11:26:00,47.7,36.5,30.24,SSW,208,2.0,5.0,65,0.00,,,0.00,Wunderground v.1.15,2013-02-06 16:26:00,
2013-02-06 11:32:00,48.0,36.8,30.24,SW,217,2.0,5.0,65,0.00,,,0.00,Wunderground v.1.15,2013-02-06 16:32:00,
2013-02-06 11:38:00,48.1,36.5,30.24,SW,222,3.0,5.0,64,0.00,,,0.00,Wunderground v.1.15,2013-02-06 16:38:00,
2013-02-06 11:44:00,48.3,36.3,30.24,SW,231,4.0,5.0,63,0.00,,,0.00,Wunderground v.1.15,2013-02-06 16:44:00,
2013-02-06 11:50:00,48.4,35.1,30.24,SW,229,4.0,6.0,60,0.00,,,0.00,Wunderground v.1.15,2013-02-06 16:50:00,
2013-02-06 11:56:00,48.1,34.9,30.23,SW,224,6.0,7.0,60,0.00,,,0.00,Wunderground v.1.15,2013-02-06 16:56:00,
2013-02-06 12:02:00,48.6,36.6,30.23,WSW,245,6.0,8.0,63,0.00,,,0.00,Wunderground v.1.15,2013-02-06 17:02:00,
2013-02-06 12:08:00,50.0,36.7,30.23,WSW,249,6.0,8.0,60,0.00,,,0.00,Wunderground v.1.15,2013-02-06 17:08:00,
2013-02-06 12:14:00,50.7,36.9,30.23,WSW,248,6.0,8.0,59,0.00,,,0.00,Wunderground v.1.15,2013-02-06 17:14:00,
2013-02-06 12:20:00,51.1,35.9,30.23,WSW,250,6.0,6.0,56,0.00,,,0.00,Wunderground v.1.15,2013-02-06 17:20:00,
2013-02-06 12:26:00,51.2,34.6,30.23,West,262,6.0,9.0,53,0.00,,,0.00,Wunderground v.1.15,2013-02-06 17:26:00,
2013-02-06 12:40:00,52.0,35.4,30.23,WNW,301,6.0,6.0,53,0.00,,,0.00,Wunderground v.1.15,2013-02-06 17:40:00,
2013-02-06 12:46:00,52.4,35.8,30.22,West,273,7.0,7.0,53,0.00,,,0.00,Wunderground v.1.15,2013-02-06 17:46:00,
2013-02-06 12:52:00,52.7,35.1,30.22,West,267,6.0,6.0,51,0.00,,,0.00,Wunderground v.1.15,2013-02-06 17:52:00,
2013-02-06 12:58:00,53.0,34.8,30.22,West,264,4.0,6.0,50,0.00,,,0.00,Wunderground v.1.15,2013-02-06 17:58:00,
2013-02-06 13:04:00,53.3,34.6,30.22,SW,217,3.0,5.0,49,0.00,,,0.00,Wunderground v.1.15,2013-02-06 18:04:00,
2013-02-06 13:10:00,52.5,33.9,30.22,SW,214,4.0,7.0,49,0.00,,,0.00,Wunderground v.1.15,2013-02-06 18:10:00,
2013-02-06 13:16:00,52.0,34.4,30.22,SW,227,5.0,7.0,51,0.00,,,0.00,Wunderground v.1.15,2013-02-06 18:16:00,
2013-02-06 13:22:00,52.5,33.4,30.21,SW,221,5.0,8.0,48,0.00,,,0.00,Wunderground v.1.15,2013-02-06 18:22:00,
2013-02-06 13:28:00,52.6,35.5,30.21,SW,225,6.0,8.0,52,0.00,,,0.00,Wunderground v.1.15,2013-02-06 18:28:00,
2013-02-06 13:34:00,53.0,33.8,30.21,WNW,297,5.0,7.0,48,0.00,,,0.00,Wunderground v.1.15,2013-02-06 18:34:00,
2013-02-06 13:40:00,53.7,32.3,30.20,West,267,5.0,8.0,44,0.00,,,0.00,Wunderground v.1.15,2013-02-06 18:40:00,
2013-02-06 13:46:00,53.3,32.5,30.20,West,270,6.0,8.0,45,0.00,,,0.00,Wunderground v.1.15,2013-02-06 18:46:00,
2013-02-06 13:52:00,53.5,32.1,30.20,WSW,250,6.0,7.0,44,0.00,,,0.00,Wunderground v.1.15,2013-02-06 18:52:00,
2013-02-06 13:58:00,53.8,33.5,30.20,NE,44,5.0,7.0,46,0.00,,,0.00,Wunderground v.1.15,2013-02-06 18:58:00,
2013-02-06 14:04:00,54.3,31.7,30.20,NW,318,4.0,6.0,42,0.00,,,0.00,Wunderground v.1.15,2013-02-06 19:04:00,
2013-02-06 14:10:00,54.5,32.4,30.20,NNE,32,5.0,8.0,43,0.00,,,0.00,Wunderground v.1.15,2013-02-06 19:10:00,
2013-02-06 14:16:00,54.8,30.9,30.20,North,4,4.0,8.0,40,0.00,,,0.00,Wunderground v.1.15,2013-02-06 19:16:00,
2013-02-06 14:22:00,54.8,30.9,30.19,SSE,155,3.0,5.0,40,0.00,,,0.00,Wunderground v.1.15,2013-02-06 19:22:00,
2013-02-06 14:28:00,54.9,31.0,30.19,West,266,4.0,8.0,40,0.00,,,0.00,Wunderground v.1.15,2013-02-06 19:28:00,
2013-02-06 14:34:00,54.7,30.8,30.19,West,276,4.0,5.0,40,0.00,,,0.00,Wunderground v.1.15,2013-02-06 19:34:00,
2013-02-06 14:40:00,55.4,30.2,30.19,WSW,239,4.0,6.0,38,0.00,,,0.00,Wunderground v.1.15,2013-02-06 19:40:00,
2013-02-06 14:46:00,55.2,31.3,30.19,SW,232,6.0,8.0,40,0.00,,,0.00,Wunderground v.1.15,2013-02-06 19:46:00,
2013-02-06 14:52:00,54.4,29.3,30.19,SW,229,6.0,7.0,38,0.00,,,0.00,Wunderground v.1.15,2013-02-06 19:52:00,
2013-02-06 14:58:00,54.0,30.2,30.19,SW,235,6.0,7.0,40,0.00,,,0.00,Wunderground v.1.15,2013-02-06 19:58:00,
2013-02-06 15:04:00,54.9,30.4,30.19,North,8,5.0,7.0,39,0.00,,,0.00,Wunderground v.1.15,2013-02-06 20:04:00,
2013-02-06 15:10:00,55.7,29.8,30.19,NNW,340,4.0,4.0,37,0.00,,,0.00,Wunderground v.1.15,2013-02-06 20:10:00,
2013-02-06 15:16:00,56.0,29.4,30.18,NNW,339,3.0,5.0,36,0.00,,,0.00,Wunderground v.1.15,2013-02-06 20:16:00,
2013-02-06 15:22:00,56.4,31.1,30.18,West,278,2.0,3.0,38,0.00,,,0.00,Wunderground v.1.15,2013-02-06 20:22:00,
2013-02-06 15:28:00,56.6,29.9,30.18,SW,226,1.0,5.0,36,0.00,,,0.00,Wunderground v.1.15,2013-02-06 20:28:00,
2013-02-06 15:34:00,55.7,30.5,30.18,SSW,210,3.0,8.0,38,0.00,,,0.00,Wunderground v.1.15,2013-02-06 20:34:00,
2013-02-06 15:40:00,55.5,30.3,30.18,WSW,252,4.0,4.0,38,0.00,,,0.00,Wunderground v.1.15,2013-02-06 20:40:00,
2013-02-06 15:46:00,55.7,31.1,30.18,NE,55,2.0,5.0,39,0.00,,,0.00,Wunderground v.1.15,2013-02-06 20:46:00,
2013-02-06 15:52:00,56.5,29.1,30.18,NNE,26,2.0,5.0,35,0.00,,,0.00,Wunderground v.1.15,2013-02-06 20:52:00,
2013-02-06 15:58:00,56.4,29.1,30.18,SE,134,3.0,5.0,35,0.00,,,0.00,Wunderground v.1.15,2013-02-06 20:58:00,
2013-02-06 16:04:00,56.3,29.0,30.18,SSW,203,1.0,5.0,35,0.00,,,0.00,Wunderground v.1.15,2013-02-06 21:04:00,
2013-02-06 16:10:00,56.0,29.4,30.18,WSW,246,3.0,6.0,36,0.00,,,0.00,Wunderground v.1.15,2013-02-06 21:10:00,
2013-02-06 16:16:00,56.0,29.4,30.19,West,259,4.0,6.0,36,0.00,,,0.00,Wunderground v.1.15,2013-02-06 21:16:00,
2013-02-06 16:22:00,56.4,30.4,30.19,West,276,4.0,5.0,37,0.00,,,0.00,Wunderground v.1.15,2013-02-06 21:22:00,
2013-02-06 16:28:00,56.3,29.7,30.19,WNW,285,4.0,5.0,36,0.00,,,0.00,Wunderground v.1.15,2013-02-06 21:28:00,
2013-02-06 16:34:00,56.2,29.6,30.19,WNW,283,4.0,5.0,36,0.00,,,0.00,Wunderground v.1.15,2013-02-06 21:34:00,
2013-02-06 16:40:00,56.1,30.2,30.19,West,267,4.0,4.0,37,0.00,,,0.00,Wunderground v.1.15,2013-02-06 21:40:00,
2013-02-06 16:46:00,55.9,30.0,30.19,West,264,3.0,5.0,37,0.00,,,0.00,Wunderground v.1.15,2013-02-06 21:46:00,
2013-02-06 16:52:00,55.8,29.9,30.19,WSW,252,2.0,5.0,37,0.00,,,0.00,Wunderground v.1.15,2013-02-06 21:52:00,
2013-02-06 16:58:00,56.0,28.7,30.19,WSW,253,2.0,5.0,35,0.00,,,0.00,Wunderground v.1.15,2013-02-06 21:58:00,
2013-02-06 17:04:00,56.7,30.0,30.19,West,271,1.0,5.0,36,0.00,,,0.00,Wunderground v.1.15,2013-02-06 22:04:00,
2013-02-06 17:10:00,56.3,29.0,30.19,WSW,243,1.0,5.0,35,0.00,,,0.00,Wunderground v.1.15,2013-02-06 22:10:00,
2013-02-06 17:16:00,55.7,29.1,30.19,WSW,248,3.0,5.0,36,0.00,,,0.00,Wunderground v.1.15,2013-02-06 22:16:00,
2013-02-06 17:22:00,55.3,29.4,30.19,SW,232,3.0,5.0,37,0.00,,,0.00,Wunderground v.1.15,2013-02-06 22:22:00,
2013-02-06 17:28:00,54.9,29.1,30.18,WSW,240,3.0,5.0,37,0.00,,,0.00,Wunderground v.1.15,2013-02-06 22:28:00,
2013-02-06 17:34:00,54.7,28.9,30.18,WSW,248,3.0,5.0,37,0.00,,,0.00,Wunderground v.1.15,2013-02-06 22:34:00,
2013-02-06 17:40:00,54.5,29.4,30.18,SW,226,2.0,2.0,38,0.00,,,0.00,Wunderground v.1.15,2013-02-06 22:40:00,
2013-02-06 17:46:00,54.5,29.4,30.19,SW,227,1.0,5.0,38,0.00,,,0.00,Wunderground v.1.15,2013-02-06 22:46:00,
2013-02-06 17:52:00,53.9,29.5,30.19,SW,228,0.0,5.0,39,0.00,,,0.00,Wunderground v.1.15,2013-02-06 22:52:00,
2013-02-06 17:58:00,53.0,29.9,30.19,SW,228,0.0,5.0,41,0.00,,,0.00,Wunderground v.1.15,2013-02-06 22:58:00,
2013-02-06 18:04:00,52.6,29.5,30.20,NNW,333,0.0,5.0,41,0.00,,,0.00,Wunderground v.1.15,2013-02-06 23:04:00,
2013-02-06 18:10:00,52.3,29.9,30.20,NNW,333,0.0,5.0,42,0.00,,,0.00,Wunderground v.1.15,2013-02-06 23:10:00,
2013-02-06 18:16:00,51.3,29.5,30.20,NNW,333,0.0,5.0,43,0.00,,,0.00,Wunderground v.1.15,2013-02-06 23:16:00,
2013-02-06 18:22:00,50.6,29.5,30.19,NNW,333,0.0,5.0,44,0.00,,,0.00,Wunderground v.1.15,2013-02-06 23:22:00,
2013-02-06 18:28:00,49.9,31.0,30.19,North,5,0.0,5.0,48,0.00,,,0.00,Wunderground v.1.15,2013-02-06 23:28:00,
2013-02-06 18:34:00,48.4,31.1,30.19,NE,37,1.0,5.0,51,0.00,,,0.00,Wunderground v.1.15,2013-02-06 23:34:00,
2013-02-06 18:40:00,47.7,31.4,30.19,NE,37,0.0,5.0,53,0.00,,,0.00,Wunderground v.1.15,2013-02-06 23:40:00,
2013-02-06 18:46:00,47.4,31.1,30.19,ENE,60,0.0,5.0,53,0.00,,,0.00,Wunderground v.1.15,2013-02-06 23:46:00,
2013-02-06 18:52:00,46.8,31.0,30.19,East,79,1.0,5.0,54,0.00,,,0.00,Wunderground v.1.15,2013-02-06 23:52:00,
2013-02-06 18:58:00,46.2,31.4,30.19,East,79,0.0,5.0,56,0.00,,,0.00,Wunderground v.1.15,2013-02-06 23:58:00,
2013-02-06 19:04:00,45.5,31.6,30.19,NE,49,0.0,5.0,58,0.00,,,0.00,Wunderground v.1.15,2013-02-07 00:04:00,
2013-02-06 19:10:00,44.9,31.0,30.19,NE,50,0.0,5.0,58,0.00,,,0.00,Wunderground v.1.15,2013-02-07 00:10:00,
2013-02-06 19:16:00,44.9,31.0,30.19,NE,49,0.0,5.0,58,0.00,,,0.00,Wunderground v.1.15,2013-02-07 00:16:00,
2013-02-06 19:22:00,44.9,30.6,30.19,NE,49,1.0,5.0,57,0.00,,,0.00,Wunderground v.1.15,2013-02-07 00:22:00,
2013-02-06 19:28:00,45.3,30.5,30.19,NE,50,1.0,5.0,56,0.00,,,0.00,Wunderground v.1.15,2013-02-07 00:28:00,
2013-02-06 19:34:00,45.1,30.3,30.19,NE,49,0.0,5.0,56,0.00,,,0.00,Wunderground v.1.15,2013-02-07 00:34:00,
2013-02-06 19:40:00,44.1,31.1,30.18,ENE,73,1.0,5.0,60,0.00,,,0.00,Wunderground v.1.15,2013-02-07 00:40:00,
2013-02-06 19:46:00,43.4,30.8,30.19,East,81,2.0,5.0,61,0.00,,,0.00,Wunderground v.1.15,2013-02-07 00:46:00,
2013-02-06 19:52:00,42.8,30.7,30.19,East,80,0.0,5.0,62,0.00,,,0.00,Wunderground v.1.15,2013-02-07 00:52:00,
2013-02-06 19:58:00,42.5,30.8,30.19,East,80,0.0,5.0,63,0.00,,,0.00,Wunderground v.1.15,2013-02-07 00:58:00,
2013-02-06 20:04:00,42.2,31.3,30.19,East,80,0.0,5.0,65,0.00,,,0.00,Wunderground v.1.15,2013-02-07 01:04:00,
2013-02-06 20:10:00,42.3,31.4,30.19,East,80,0.0,5.0,65,0.00,,,0.00,Wunderground v.1.15,2013-02-07 01:10:00,
2013-02-06 20:16:00,42.2,31.3,30.19,WSW,238,0.0,5.0,65,0.00,,,0.00,Wunderground v.1.15,2013-02-07 01:16:00,
2013-02-06 20:22:00,42.2,32.4,30.19,SW,236,0.0,5.0,68,0.00,,,0.00,Wunderground v.1.15,2013-02-07 01:22:00,
2013-02-06 20:28:00,42.8,33.0,30.19,East,90,0.0,5.0,68,0.00,,,0.00,Wunderground v.1.15,2013-02-07 01:28:00,
2013-02-06 20:34:00,42.8,31.8,30.19,NE,41,1.0,5.0,65,0.00,,,0.00,Wunderground v.1.15,2013-02-07 01:34:00,
2013-02-06 20:40:00,43.2,31.8,30.19,NE,41,1.0,5.0,64,0.00,,,0.00,Wunderground v.1.15,2013-02-07 01:40:00,
2013-02-06 20:46:00,43.3,31.9,30.19,NE,41,0.0,5.0,64,0.00,,,0.00,Wunderground v.1.15,2013-02-07 01:46:00,
2013-02-06 20:52:00,43.2,32.6,30.19,West,270,0.0,5.0,66,0.00,,,0.00,Wunderground v.1.15,2013-02-07 01:52:00,
2013-02-06 20:58:00,43.2,32.6,30.19,West,273,0.0,5.0,66,0.00,,,0.00,Wunderground v.1.15,2013-02-07 01:58:00,
2013-02-06 21:04:00,42.3,31.7,30.19,NE,48,1.0,5.0,66,0.00,,,0.00,Wunderground v.1.15,2013-02-07 02:04:00,
2013-02-06 21:10:00,42.2,32.0,30.20,NE,46,0.0,5.0,67,0.00,,,0.00,Wunderground v.1.15,2013-02-07 02:10:00,
2013-02-06 21:16:00,42.5,32.3,30.21,NE,34,0.0,5.0,67,0.00,,,0.00,Wunderground v.1.15,2013-02-07 02:16:00,
2013-02-06 21:22:00,42.7,31.4,30.22,NNE,16,1.0,5.0,64,0.00,,,0.00,Wunderground v.1.15,2013-02-07 02:22:00,
2013-02-06 21:28:00,43.0,30.9,30.22,North,8,1.0,5.0,62,0.00,,,0.00,Wunderground v.1.15,2013-02-07 02:28:00,
2013-02-06 21:34:00,42.4,30.7,30.21,SE,125,1.0,5.0,63,0.00,,,0.00,Wunderground v.1.15,2013-02-07 02:34:00,
2013-02-06 21:40:00,42.0,30.3,30.22,SE,125,0.0,5.0,63,0.00,,,0.00,Wunderground v.1.15,2013-02-07 02:40:00,
2013-02-06 21:46:00,41.5,30.6,30.22,NNE,23,0.0,5.0,65,0.00,,,0.00,Wunderground v.1.15,2013-02-07 02:46:00,
2013-02-06 21:52:00,40.4,30.7,30.22,NNE,23,0.0,5.0,68,0.00,,,0.00,Wunderground v.1.15,2013-02-07 02:52:00,
2013-02-06 21:58:00,40.2,30.5,30.22,NNE,23,0.0,5.0,68,0.00,,,0.00,Wunderground v.1.15,2013-02-07 02:58:00,
2013-02-06 22:04:00,40.0,30.3,30.23,NE,49,0.0,5.0,68,0.00,,,0.00,Wunderground v.1.15,2013-02-07 03:04:00,
2013-02-06 22:10:00,39.5,30.9,30.22,East,86,1.0,5.0,71,0.00,,,0.00,Wunderground v.1.15,2013-02-07 03:10:00,
2013-02-06 22:16:00,39.2,30.6,30.22,ESE,104,1.0,5.0,71,0.00,,,0.00,Wunderground v.1.15,2013-02-07 03:16:00,
2013-02-06 22:22:00,38.8,30.9,30.21,ESE,105,0.0,5.0,73,0.00,,,0.00,Wunderground v.1.15,2013-02-07 03:22:00,
2013-02-06 22:28:00,38.7,31.1,30.21,SE,136,1.0,5.0,74,0.00,,,0.00,Wunderground v.1.15,2013-02-07 03:28:00,
2013-02-06 22:34:00,38.9,31.3,30.21,SE,142,1.0,5.0,74,0.00,,,0.00,Wunderground v.1.15,2013-02-07 03:34:00,
2013-02-06 22:46:00,39.8,32.2,30.20,SSE,159,1.0,5.0,74,0.00,,,0.00,Wunderground v.1.15,2013-02-07 03:46:00,
2013-02-06 22:52:00,39.3,32.4,30.20,SSE,157,0.0,5.0,76,0.00,,,0.00,Wunderground v.1.15,2013-02-07 03:52:00,
2013-02-06 22:58:00,39.0,32.4,30.20,SSE,156,0.0,5.0,77,0.00,,,0.00,Wunderground v.1.15,2013-02-07 03:58:00,
2013-02-06 23:04:00,39.2,32.3,30.20,ENE,77,0.0,5.0,76,0.00,,,0.00,Wunderground v.1.15,2013-02-07 04:04:00,
2013-02-06 23:10:00,38.9,31.6,30.20,NE,56,1.0,1.0,75,0.00,,,0.00,Wunderground v.1.15,2013-02-07 04:10:00,
2013-02-06 23:16:00,40.0,31.7,30.20,SE,134,1.0,5.0,72,0.00,,,0.00,Wunderground v.1.15,2013-02-07 04:16:00,
2013-02-06 23:22:00,40.3,30.9,30.20,SE,141,2.0,3.0,69,0.00,,,0.00,Wunderground v.1.15,2013-02-07 04:22:00,
2013-02-06 23:28:00,40.7,31.3,30.19,SE,143,1.0,5.0,69,0.00,,,0.00,Wunderground v.1.15,2013-02-07 04:28:00,
2013-02-06 23:34:00,40.9,31.1,30.19,SE,127,1.0,5.0,68,0.00,,,0.00,Wunderground v.1.15,2013-02-07 04:34:00,
2013-02-06 23:40:00,40.8,30.3,30.20,East,81,1.0,5.0,66,0.00,,,0.00,Wunderground v.1.15,2013-02-07 04:40:00,
2013-02-06 23:46:00,41.3,30.0,30.20,ESE,117,1.0,5.0,64,0.00,,,0.00,Wunderground v.1.15,2013-02-07 04:46:00,
2013-02-06 23:52:00,42.1,30.0,30.20,SE,134,1.0,5.0,62,0.00,,,0.00,Wunderground v.1.15,2013-02-07 04:52:00,
2013-02-06 23:58:00,42.5,30.0,30.20,SE,141,2.0,5.0,61,0.00,,,0.00,Wunderground v.1.15,2013-02-07 04:58:00,